Regional Weather Roundup
Issued by NWS Wilmington, NC

Home | Current Version | Previous Version | Text Only | Print | Product List | Glossary On
Versions: 1 2 3 4 5 6 7 8 9 10 11 12 13 14 15 16 17 18 19 20 21 22 23 24 25 26 27 28 29 30 31 32 33 34 35 36 37 38 39 40 41 42 43 44 45 46 47 48 49 50
000
ASUS42 KILM 291610
RWRILM
RWRILM
REGIONAL HOURLY WEATHER ROUNDUP
NATIONAL WEATHER SERVICE WILMINGTON NC
1100 AM EST MON DEC 29 2014

NOTE: "FAIR" INDICATES FEW OR NO CLOUDS BELOW 12,000 FEET WITH NO
SIGNIFICANT WEATHER AND/OR OBSTRUCTIONS TO VISIBILITY.

...............WFO WILMINGTON COUNTY WARNING AREA...............

......COASTAL NC AND SC COUNTIES......

CITY           SKY/WX    TMP DP  RH WIND       PRES   REMARKS
WILMINGTON     CLOUDY    58  57  97 N9        30.08S
SOUTHPORT      CLOUDY    62  60  95 CALM      30.07S
N MYRTLE BEACH CLOUDY    60  57  89 SW3       30.07R
MYRTLE BEACH   CLOUDY    64  61  88 W8        30.08R

......INLAND NC AND SC COUNTIES.......

CITY           SKY/WX    TMP DP  RH WIND       PRES   REMARKS
LUMBERTON      LGT RAIN  56  54  93 E6        30.09S FOG
ELIZABETHTOWN  DRIZZLE   56  54  95 NE3       30.09F
WHITEVILLE     CLOUDY    57  53  87 NE9       30.08F
FLORENCE       CLOUDY    57  54  89 E8        30.10R
DARLINGTON     CLOUDY    55  52  88 E8        30.10F

....................REST OF NORTH CAROLINA......................

.........EASTERN NC.........

CITY           SKY/WX    TMP DP  RH WIND       PRES   REMARKS
CAPE HATTERAS  CLOUDY    54  54 100 VRB7      30.08F
JACKSONVILLE   CLOUDY    55  52  88 N7        30.12R
MOREHEAD CITY  CLOUDY    57  54  89 N8        30.10S
KENANSVILLE    CLOUDY    55  54  97 CALM      30.13S FOG
NEW BERN       LGT RAIN  55  51  86 N9        30.14S FOG
ELIZABETH CITY LGT RAIN  51  46  83 NE15G21   30.14S

.........CENTRAL NC.........

CITY           SKY/WX    TMP DP  RH WIND       PRES   REMARKS
RALEIGH DURHAM LGT RAIN  53  50  89 NE6       30.12S
ROCKY MOUNT    LGT RAIN  50  48  93 NE6       30.14R
ROANOKE RAPIDS NOT AVBL
FAYETTEVILLE   CLOUDY    55  53  93 E7        30.08F
HOFFMAN        LGT RAIN  54  54  99 E3        30.12R

.........WESTERN NC.........

CITY           SKY/WX    TMP DP  RH WIND       PRES   REMARKS
CHARLOTTE      CLOUDY    56  52  86 E9        30.11R
GREENSBORO     LGT RAIN  51  50  96 E7        30.10S
HICKORY        NOT AVBL
BOONE          NOT AVBL
ASHEVILLE      NOT AVBL

.....................REST OF SOUTH CAROLINA.....................

.........EASTERN SC.........

CITY           SKY/WX    TMP DP  RH WIND       PRES   REMARKS
CHARLESTON     CLOUDY    67  62  84 SW10      30.09R
BEAUFORT MCAS  CLOUDY    68  63  84 SW10      30.09F
HILTON HEAD    CLOUDY    66  64  94 S7        30.12R

.........CENTRAL SC.........

CITY           SKY/WX    TMP DP  RH WIND       PRES   REMARKS
COLUMBIA       CLOUDY    58  55  90 E3        30.08F
ORANGEBURG     CLOUDY    59  55  87 NE7       30.09S
SUMTER SHAW    CLOUDY    57  54  91 E8        30.07F

.........WESTERN SC.........

CITY           SKY/WX    TMP DP  RH WIND       PRES   REMARKS
GREENVILLE     NOT AVBL
ROCK HILL      CLOUDY    56  54  93 VRB3      30.11R
ANDERSON       CLOUDY    57  54  89 CALM      30.13R
CLEMSON        NOT AVBL
GREENWOOD      CLOUDY    57  54  89 CALM      30.13R


...................COASTAL AND OFFSHORE REPORTS..................

................LOCAL PIERS AND NC RESERVE................


STATION/POSITION TIME  SKY/WX   TEMP    WIND        PRES    VSBY
                                AIR SEA DIR/SP/G
                 (UTC)          (F)     (DEG/KT/KT) (MB)    (MI)
JOHNY MRCER PIER 1600            57 56   30/  7/ 14 1018.0S
NC RESRV MASNBRO 1500            59      30/  5     1019.0S
OCEAN CREST PIER 1600            59 57   90/  1/  2 1017.8R
SPRINGMAID  PIER 1600            60 54  220/  4/  8 1018.2S


................COASTAL AND OFFSHORE BUOYS................


STATION/POSITION TIME  SKY/WX   TEMP    WIND        PRES    VSBY
                                AIR SEA DIR/SP/G
                 (UTC)          (F)     (DEG/KT/KT) (MB)    (MI)
DIMNDSHOAL 41025 1600            62                 1018.6R
WVE H/P(F/S)=  4/ 4

CAPE LOOKOUT     1600            57      40/ 17/ 19 1018.6F
ONSLOW BAY 41036 1600            60 60   50/ 12/ 14 1018.8F
WVE H/P(F/S)=  2/ 6 WND WVE H/P(F/S)=  2/ 6 SWL H/P/D(F/S/D)=  2/150/ 6

5 WRITEBCH 41038 NOT AVBL
MASONBORO  41110 1600               54                N/A
WVE H/P(F/S)=  2/12 WND WVE H/P(F/S)=  2/ 6 SWL H/P/D(F/S/D)=  2/110/12

WILM HARBR 41108 1600               57                N/A
WVE H/P(F/S)=  2/ 5 WND WVE H/P(F/S)=  2/ 5 SWL H/P/D(F/S/D)=  2/140/13

27WRITEBCH 41037 NOT AVBL
FRYING PAN 41013 1600            66 68  250/ 10/ 14 1019.2F
WVE H/P(F/S)=  3/13 WND WVE H/P(F/S)=  2/ 4 SWL H/P/D(F/S/D)=  2/ 90/13

SUNST NRSH 41024 1500            57     120/  4/  6   N/A
CAPRS NRSH 41029 NOT AVBL
EDISTO     41004 1600            66 72  260/ 19/ 21 1018.5R
WVE H/P(F/S)=  4/ 4 WND WVE H/P(F/S)=  3/ 4 SWL H/P/D(F/S/D)=  2/11



..........OFFSHORE BUOYS BEYOND 100 NM OFFSHORE...........
.....IN A TRIANGLE---HAT TO BERMUDA TO BAHAMAS TO HAT.....


STATION/POSITION TIME  SKY/WX   TEMP    WIND        PRES    VSBY
                                AIR SEA DIR/SP/G
                 (UTC)          (F)     (DEG/KT/KT) (MB)    (MI)
150E HAT   41001 NOT AVBL
W BERMUDA  41048 1540            73 73  210/ 19/ 21 1020.8F
WVE H/P(F/S)=  4/ 5 WND WVE H/P(F/S)=  3/ 5 SWL H/P/D(F/S/D)=  2/ 40/12

ATLANTIC S 41049 1500            75 77  110/  8/ 10 1024.5F
WVE H/P(F/S)=  5/11 WND WVE H/P(F/S)=  2/ 4 SWL H/P/D(F/S/D)=  5/ 50/11

E BAHAMAS  41046 1451            78 78  110/ 12/ 14 1022.0F
WVE H/P(F/S)=  6/13 WND WVE H/P(F/S)=  3/ 5 SWL H/P/D(F/S/D)=  5/ 40/13

NE BAHAMAS 41047 1542            76 78  140/ 12/ 14 1023.5F
WVE H/P(F/S)=  4/11 WND WVE H/P(F/S)=  2/ 5 SWL H/P/D(F/S/D)=  3/ 60/11

120E CANVRL41010 1600            77 77  190/ 16/ 17 1020.7F
WVE H/P(F/S)=  4/11 WND WVE H/P(F/S)=  2/ 3 SWL H/P/D(F/S/D)=  3/100/11


END



USA.gov is the U.S. government's official web portal to all federal, state and local government web resources and services.